Retour au catalogue

STARLINK-30547

ActifCommunicationsVLEO
NORAD 58044·PAYLOAD·🇺🇸 United States

Lancé Oct 9, 2023 depuis Vandenberg Space Force Base

Loading…

Prochains Passages (prochaines 24 heures)

TLE

FraisSource: CelesTrak SupGP

Époque: Sep 14, 2026, 21:14 UTC

1 58044C 23156S   26257.88520833  .00006327  00000+0  18695-3 0  2573
2 58044  53.1594   5.8537 0001163  72.4133 112.5262 15.34385854    15

Suivez STARLINK-30547 en temps réel avec AllMySat

Download on the App Store